Time,TemperatureF,DewpointF,PressureIn,WindDirection,WindDirectionDegrees,WindSpeedMPH,WindSpeedGustMPH,Humidity,HourlyPrecipIn,Conditions,Clouds,dailyrainin,SoftwareType,DateUTC
2013-05-15 00:03:00,70.0,61.0,29.67,SSE,150,0.0,3.0,74,-99.99,,,-99.99,,2013-05-15 04:03:00,
2013-05-15 00:12:00,70.0,61.0,29.67,SSE,150,0.0,3.0,74,-99.99,,,-99.99,,2013-05-15 04:12:00,
2013-05-15 00:24:00,71.0,62.0,29.67,SE,144,2.0,5.0,74,-99.99,,,-99.99,,2013-05-15 04:24:00,
2013-05-15 00:33:00,73.0,63.0,29.65,ENE,69,0.0,7.0,70,-99.99,,,-99.99,,2013-05-15 04:33:00,
2013-05-15 00:42:00,73.0,63.0,29.65,ENE,69,0.0,7.0,70,-99.99,,,-99.99,,2013-05-15 04:42:00,
2013-05-15 00:52:00,74.0,63.0,29.65,SSW,203,1.0,2.0,68,-99.99,,,-99.99,,2013-05-15 04:52:00,
2013-05-15 01:02:00,74.0,63.0,29.65,SSW,198,3.0,5.0,68,-99.99,,,-99.99,,2013-05-15 05:02:00,
2013-05-15 01:12:00,74.0,63.0,29.65,SSW,198,3.0,5.0,68,-99.99,,,-99.99,,2013-05-15 05:12:00,
2013-05-15 01:22:00,74.0,63.0,29.65,SE,136,2.0,6.0,68,-99.99,,,-99.99,,2013-05-15 05:22:00,
2013-05-15 01:32:00,74.0,63.0,29.65,SE,136,2.0,6.0,68,-99.99,,,-99.99,,2013-05-15 05:32:00,
2013-05-15 01:42:00,74.0,63.0,29.65,SE,136,2.0,6.0,68,-99.99,,,-99.99,,2013-05-15 05:42:00,
2013-05-15 01:52:00,74.0,63.0,29.65,SE,136,2.0,6.0,68,-99.99,,,-99.99,,2013-05-15 05:52:00,
2013-05-15 06:02:00,74.0,57.0,29.60,West,265,7.0,7.0,56,-99.99,,,-99.99,,2013-05-15 10:02:00,
2013-05-15 06:12:00,74.0,57.0,29.60,West,265,7.0,7.0,56,-99.99,,,-99.99,,2013-05-15 10:12:00,
2013-05-15 06:22:00,74.0,57.0,29.60,West,265,7.0,7.0,56,-99.99,,,-99.99,,2013-05-15 10:22:00,
2013-05-15 06:32:00,73.0,57.0,29.62,NW,311,11.0,12.0,57,-99.99,,,-99.99,,2013-05-15 10:32:00,
2013-05-15 06:42:00,73.0,57.0,29.62,NW,311,11.0,12.0,57,-99.99,,,-99.99,,2013-05-15 10:42:00,
2013-05-15 06:52:00,72.0,62.0,29.65,WNW,295,14.0,28.0,72,-99.99,,,-99.99,,2013-05-15 10:52:00,
2013-05-15 07:09:00,66.0,63.0,29.65,NW,318,0.0,3.0,91,-99.99,,,-99.99,,2013-05-15 11:09:00,
2013-05-15 07:17:00,66.0,63.0,29.65,NW,318,0.0,3.0,91,-99.99,,,-99.99,,2013-05-15 11:17:00,
2013-05-15 07:26:00,65.0,64.0,29.65,WSW,253,0.0,3.0,95,-99.99,,,-99.99,,2013-05-15 11:26:00,
2013-05-15 07:35:00,65.0,64.0,29.66,WSW,253,1.0,3.0,98,-99.99,,,-99.99,,2013-05-15 11:35:00,
2013-05-15 07:47:00,65.0,64.0,29.67,NW,308,0.0,3.0,98,-99.99,,,-99.99,,2013-05-15 11:47:00,
2013-05-15 07:59:00,65.0,64.0,29.67,NW,308,0.0,3.0,98,-99.99,,,-99.99,,2013-05-15 11:59:00,
2013-05-15 08:06:00,66.0,65.0,29.66,NW,304,3.0,3.0,96,-99.99,,,-99.99,,2013-05-15 12:06:00,
2013-05-15 08:13:00,66.0,64.0,29.68,NW,304,0.0,2.0,93,-99.99,,,-99.99,,2013-05-15 12:13:00,
2013-05-15 08:35:00,67.0,63.0,29.68,West,281,3.0,3.0,87,-99.99,,,-99.99,,2013-05-15 12:35:00,
2013-05-15 08:57:00,68.0,63.0,29.69,WNW,282,2.0,5.0,85,-99.99,,,-99.99,,2013-05-15 12:57:00,
2013-05-15 09:15:00,69.0,63.0,29.69,West,281,2.0,5.0,81,-99.99,,,-99.99,,2013-05-15 13:15:00,
2013-05-15 09:25:00,71.0,64.0,29.70,West,270,3.0,6.0,78,-99.99,,,-99.99,,2013-05-15 13:25:00,
2013-05-15 09:35:00,71.0,63.0,29.70,WNW,285,1.0,5.0,76,-99.99,,,-99.99,,2013-05-15 13:35:00,
2013-05-15 09:46:00,71.0,63.0,29.70,WNW,285,1.0,5.0,76,-99.99,,,-99.99,,2013-05-15 13:46:00,
2013-05-15 09:58:00,72.0,64.0,29.70,WNW,299,1.0,5.0,75,-99.99,,,-99.99,,2013-05-15 13:58:00,
2013-05-15 10:05:00,74.0,66.0,29.72,WNW,292,4.0,7.0,76,-99.99,,,-99.99,,2013-05-15 14:05:00,
2013-05-15 10:36:00,79.0,63.0,29.71,West,270,6.0,11.0,58,-99.99,,,-99.99,,2013-05-15 14:36:00,
2013-05-15 10:45:00,79.0,63.0,29.71,West,270,6.0,11.0,58,-99.99,,,-99.99,,2013-05-15 14:45:00,
2013-05-15 10:58:00,80.0,62.0,29.71,WNW,284,5.0,8.0,54,-99.99,,,-99.99,,2013-05-15 14:58:00,
2013-05-15 11:08:00,81.0,54.0,29.72,WNW,287,6.0,14.0,39,-99.99,,,-99.99,,2013-05-15 15:08:00,
2013-05-15 11:15:00,81.0,54.0,29.72,WNW,287,6.0,14.0,39,-99.99,,,-99.99,,2013-05-15 15:15:00,
2013-05-15 11:27:00,80.0,54.0,29.71,NNW,339,4.0,11.0,41,-99.99,,,-99.99,,2013-05-15 15:27:00,
2013-05-15 11:36:00,81.0,54.0,29.71,NW,308,8.0,8.0,40,-99.99,,,-99.99,,2013-05-15 15:36:00,
2013-05-15 11:47:00,81.0,54.0,29.71,NW,308,8.0,8.0,40,-99.99,,,-99.99,,2013-05-15 15:47:00,
2013-05-15 12:00:00,81.0,54.0,29.72,West,275,10.0,13.0,39,-99.99,,,-99.99,,2013-05-15 16:00:00,
2013-05-15 12:07:00,81.0,54.0,29.73,WNW,285,10.0,12.0,39,-99.99,,,-99.99,,2013-05-15 16:07:00,
2013-05-15 12:27:00,80.0,50.0,29.74,NW,311,8.0,19.0,35,-99.99,,,-99.99,,2013-05-15 16:27:00,
2013-05-15 12:34:00,79.0,50.0,29.75,West,280,1.0,14.0,37,-99.99,,,-99.99,,2013-05-15 16:34:00,
2013-05-15 12:47:00,79.0,50.0,29.75,West,280,1.0,14.0,37,-99.99,,,-99.99,,2013-05-15 16:47:00,
2013-05-15 12:58:00,80.0,51.0,29.75,NW,315,9.0,16.0,37,-99.99,,,-99.99,,2013-05-15 16:58:00,
2013-05-15 13:08:00,80.0,51.0,29.74,West,278,6.0,16.0,36,-99.99,,,-99.99,,2013-05-15 17:08:00,
2013-05-15 13:17:00,80.0,51.0,29.74,West,278,6.0,16.0,36,-99.99,,,-99.99,,2013-05-15 17:17:00,
2013-05-15 13:26:00,80.0,48.0,29.74,NW,316,8.0,13.0,33,-99.99,,,-99.99,,2013-05-15 17:26:00,
2013-05-15 13:35:00,81.0,51.0,29.75,North,3,6.0,12.0,35,-99.99,,,-99.99,,2013-05-15 17:35:00,
2013-05-15 13:45:00,81.0,51.0,29.75,North,3,6.0,12.0,35,-99.99,,,-99.99,,2013-05-15 17:45:00,
2013-05-15 13:58:00,81.0,51.0,29.74,NW,316,7.0,12.0,35,-99.99,,,-99.99,,2013-05-15 17:58:00,
2013-05-15 14:04:00,81.0,52.0,29.74,WNW,285,0.0,10.0,37,-99.99,,,-99.99,,2013-05-15 18:04:00,
2013-05-15 14:14:00,81.0,52.0,29.74,WNW,285,0.0,10.0,37,-99.99,,,-99.99,,2013-05-15 18:14:00,
2013-05-15 14:26:00,80.0,51.0,29.75,NW,315,8.0,11.0,36,-99.99,,,-99.99,,2013-05-15 18:26:00,
2013-05-15 14:35:00,81.0,54.0,29.75,WNW,302,4.0,12.0,40,-99.99,,,-99.99,,2013-05-15 18:35:00,
2013-05-15 14:46:00,81.0,54.0,29.75,WNW,302,4.0,12.0,40,-99.99,,,-99.99,,2013-05-15 18:46:00,
2013-05-15 14:57:00,82.0,52.0,29.75,West,280,5.0,10.0,35,-99.99,,,-99.99,,2013-05-15 18:57:00,
2013-05-15 15:06:00,81.0,52.0,29.75,WNW,301,6.0,8.0,37,-99.99,,,-99.99,,2013-05-15 19:06:00,
2013-05-15 15:28:00,81.0,49.0,29.74,North,357,10.0,12.0,33,-99.99,,,-99.99,,2013-05-15 19:28:00,
2013-05-15 15:36:00,82.0,52.0,29.75,WNW,302,3.0,7.0,36,-99.99,,,-99.99,,2013-05-15 19:36:00,
2013-05-15 15:44:00,82.0,52.0,29.75,WNW,302,3.0,7.0,36,-99.99,,,-99.99,,2013-05-15 19:44:00,
2013-05-15 15:56:00,82.0,52.0,29.75,NW,316,9.0,13.0,35,-99.99,,,-99.99,,2013-05-15 19:56:00,
2013-05-15 16:06:00,82.0,52.0,29.75,West,280,7.0,14.0,36,-99.99,,,-99.99,,2013-05-15 20:06:00,
2013-05-15 16:27:00,82.0,51.0,29.75,West,270,4.0,9.0,34,-99.99,,,-99.99,,2013-05-15 20:27:00,
2013-05-15 16:36:00,83.0,54.0,29.74,WNW,294,7.0,13.0,37,-99.99,,,-99.99,,2013-05-15 20:36:00,
2013-05-15 16:46:00,83.0,54.0,29.74,WNW,294,7.0,13.0,37,-99.99,,,-99.99,,2013-05-15 20:46:00,
2013-05-15 17:07:00,82.0,52.0,29.74,NW,320,4.0,9.0,35,-99.99,,,-99.99,,2013-05-15 21:07:00,
2013-05-15 17:26:00,82.0,52.0,29.74,NNW,344,1.0,8.0,36,-99.99,,,-99.99,,2013-05-15 21:26:00,
2013-05-15 17:38:00,82.0,52.0,29.74,North,360,4.0,12.0,35,-99.99,,,-99.99,,2013-05-15 21:38:00,
2013-05-15 17:48:00,82.0,52.0,29.74,North,360,4.0,12.0,35,-99.99,,,-99.99,,2013-05-15 21:48:00,
2013-05-15 18:00:00,81.0,51.0,29.73,NNW,332,4.0,8.0,35,-99.99,,,-99.99,,2013-05-15 22:00:00,
2013-05-15 18:08:00,81.0,50.0,29.74,WNW,299,5.0,10.0,34,-99.99,,,-99.99,,2013-05-15 22:08:00,
2013-05-15 18:16:00,81.0,50.0,29.74,WNW,299,5.0,10.0,34,-99.99,,,-99.99,,2013-05-15 22:16:00,
2013-05-15 18:27:00,80.0,47.0,29.73,NNW,335,0.0,5.0,32,-99.99,,,-99.99,,2013-05-15 22:27:00,
2013-05-15 18:47:00,79.0,50.0,29.75,NNW,335,2.0,8.0,37,-99.99,,,-99.99,,2013-05-15 22:47:00,
2013-05-15 18:59:00,78.0,50.0,29.74,North,3,3.0,6.0,37,-99.99,,,-99.99,,2013-05-15 22:59:00,
2013-05-15 19:06:00,78.0,50.0,29.74,NW,311,2.0,3.0,37,-99.99,,,-99.99,,2013-05-15 23:06:00,
2013-05-15 19:14:00,78.0,50.0,29.74,NW,311,2.0,3.0,37,-99.99,,,-99.99,,2013-05-15 23:14:00,
2013-05-15 19:27:00,78.0,50.0,29.74,WNW,301,1.0,5.0,37,-99.99,,,-99.99,,2013-05-15 23:27:00,
2013-05-15 19:37:00,78.0,52.0,29.74,WNW,284,0.0,8.0,41,-99.99,,,-99.99,,2013-05-15 23:37:00,
2013-05-15 19:47:00,78.0,52.0,29.74,WNW,284,0.0,8.0,41,-99.99,,,-99.99,,2013-05-15 23:47:00,
2013-05-15 20:00:00,77.0,53.0,29.74,NW,305,0.0,1.0,44,-99.99,,,-99.99,,2013-05-16 00:00:00,
2013-05-15 20:05:00,76.0,53.0,29.74,NNW,328,2.0,2.0,45,-99.99,,,-99.99,,2013-05-16 00:05:00,
2013-05-15 20:16:00,76.0,53.0,29.74,NNW,328,2.0,2.0,45,-99.99,,,-99.99,,2013-05-16 00:16:00,
2013-05-15 20:25:00,76.0,52.0,29.75,North,357,5.0,5.0,44,-99.99,,,-99.99,,2013-05-16 00:25:00,
2013-05-15 20:35:00,74.0,52.0,29.75,NW,308,0.0,3.0,46,-99.99,,,-99.99,,2013-05-16 00:35:00,
2013-05-15 20:47:00,73.0,52.0,29.75,NNW,343,0.0,0.0,47,-99.99,,,-99.99,,2013-05-16 00:47:00,
2013-05-15 20:58:00,73.0,52.0,29.75,NNW,343,0.0,0.0,47,-99.99,,,-99.99,,2013-05-16 00:58:00,
2013-05-15 21:05:00,72.0,53.0,29.75,NNW,337,0.0,2.0,51,-99.99,,,-99.99,,2013-05-16 01:05:00,
2013-05-15 21:15:00,71.0,52.0,29.76,North,353,0.0,2.0,51,-99.99,,,-99.99,,2013-05-16 01:15:00,
2013-05-15 21:27:00,71.0,52.0,29.76,North,353,0.0,2.0,51,-99.99,,,-99.99,,2013-05-16 01:27:00,
2013-05-15 21:35:00,68.0,56.0,29.75,North,353,0.0,0.0,65,-99.99,,,-99.99,,2013-05-16 01:35:00,
2013-05-15 21:47:00,68.0,56.0,29.75,North,353,0.0,0.0,65,-99.99,,,-99.99,,2013-05-16 01:47:00,
2013-05-15 22:15:00,65.0,52.0,29.75,North,353,0.0,0.0,63,-99.99,,,-99.99,,2013-05-16 02:15:00,
2013-05-15 22:26:00,65.0,52.0,29.76,North,354,3.0,3.0,63,-99.99,,,-99.99,,2013-05-16 02:26:00,
2013-05-15 22:36:00,66.0,58.0,29.76,North,354,0.0,0.0,75,-99.99,,,-99.99,,2013-05-16 02:36:00,
2013-05-15 22:55:00,66.0,58.0,29.76,North,354,0.0,0.0,75,-99.99,,,-99.99,,2013-05-16 02:55:00,
2013-05-15 23:15:00,63.0,55.0,29.77,North,354,0.0,0.0,74,-99.99,,,-99.99,,2013-05-16 03:15:00,
2013-05-15 23:25:00,62.0,54.0,29.76,North,354,0.0,0.0,74,-99.99,,,-99.99,,2013-05-16 03:25:00,
2013-05-15 23:44:00,60.0,55.0,29.77,North,354,0.0,0.0,83,-99.99,,,-99.99,,2013-05-16 03:44:00,
2013-05-15 23:56:00,60.0,55.0,29.77,North,354,0.0,0.0,83,-99.99,,,-99.99,,2013-05-16 03:56:00,